www.pogodaiklimat.ru

Погода и климат >> Архив погоды >> Россия >> Чукотка >> Майская


ПОГОДА в Майской

  • Прогноз погоды в Майской
  • Монитор погоды в Майской

АРХИВ ПОГОДЫ в Майской

Время (UTC), дата Ветер
(напр.,м/с)
 
Видим.   Явления Облачность Т
(С)
Тd
(С)
f
(%)
Тe
(С)
Тes
(С)
Комфортность P
(гПа)
Po
(гПа)
Тmin
(С)
Tmax
(С)
R
(мм)
R24
(мм)
S
(см)
06 15.08 С 3 н/о н/о +1.3 -0.8 86 -3 -3 1020.7 977.3
09 15.08 С 2 н/о н/о 0.0 -0.6 96 -4 -4 1022.7 979.0
12 15.08 штиль 0 н/о н/о -1.0 -1.7 95 -2 -2 1024.2 980.2
15 15.08 З 1 н/о н/о -0.2 -0.5 98 -2 -2 1025.1 981.2
18 15.08 З 2 н/о н/о -0.2 -0.5 98 -4 -4 1026.1 982.2
21 15.08 С 4 н/о н/о +1.2 +0.9 98 -4 -4 1027.6 983.8
00 16.08 С 4 н/о н/о +1.9 +1.4 96 -3 -3 1029.3 985.6
03 16.08 С 6 н/о н/о +2.9 +2.1 94 -3 -3 1030.1 986.5
06 16.08 СВ 5 н/о н/о +2.9 +1.9 93 -3 -3 1031.2 987.6
09 16.08 СВ 4 н/о н/о +2.1 +0.9 92 -3 -3 1032.6 988.8
15 16.08 В 2 н/о н/о -0.3 -0.7 97 -4 -4 1034.6 990.3
18 16.08 В 4 н/о н/о -0.7 -1.0 98 -7 -7 1035.7 991.3
03 17.08 ЮВ 3 н/о н/о +13.0 +2.5 49 +12 +12 1034.4 992.1
06 17.08 ЮВ 4 н/о н/о +13.8 +3.3 49 +13 +13 1034.2 992.1
09 17.08 ЮВ 5 н/о н/о +10.2 +3.0 61 +7 +7 1035.1 992.4
12 17.08 Ю 7 н/о н/о +9.3 +2.5 62 +6 +6 1035.6 992.8
15 17.08 ЮВ 7 н/о н/о +7.1 +2.2 71 +3 +3 1036.1 992.9
18 17.08 ЮВ 6
{10}
н/о н/о +7.9 +2.8 70 +4 +4 1035.8 992.7
21 17.08 ЮВ 6 н/о н/о +12.1 +3.6 56 +10 +10 1034.5 992.1
00 18.08 Ю 4
{11}
н/о н/о +14.9 +3.0 45 +14 +14 1032.8 990.9
03 18.08 Ю 5
{10}
н/о н/о +17.0 +2.4 37 +16 +16 1030.8 989.3
09 18.08 ЮВ 5 н/о н/о +11.2 +5.4 67 +9 +9 1029.8 987.5
12 18.08 ЮВ 5
{11}
н/о н/о +10.0 +5.5 74 +7 +7 1029.4 986.9
15 18.08 ЮВ 6 н/о н/о +8.6 +6.7 88 +5 +5 1028.8 986.2
18 18.08 ЮВ 5 н/о н/о +8.4 +7.0 91 +5 +5 1027.6 985.1
21 18.08 ЮВ 3 н/о н/о +9.0 +7.7 92 +6 +6 1026.6 984.2
00 19.08 З 1 н/о н/о +10.9 +8.2 83 +11 +11 1025.4 983.3
03 19.08 СЗ 2 н/о н/о +12.0 +8.1 77 +11 +11 1024.3 982.4
06 19.08 СЗ 2 н/о н/о +11.7 +8.7 82 +11 +11 1024.0 982.0
12 19.08 ЮЗ 1 н/о н/о +6.6 +5.9 95 +5 +5 1025.8 983.0
15 19.08 СВ 2 н/о н/о +5.4 +5.0 97 +3 +3 1026.2 983.2
18 19.08 ЮЗ 1 н/о н/о +5.4 +5.0 97 +4 +4 1026.8 983.8
21 19.08 ЮВ 3 н/о н/о +7.2 +6.8 97 +4 +4 1026.5 983.8
00 20.08 В 5 н/о н/о +12.7 +5.7 62 +11 +11 1024.8 983.0
03 20.08 Ю 4 н/о н/о +15.4 +4.8 49 +15 +15 1023.5 982.1
06 20.08 Ю 4 н/о н/о +15.7 +2.9 42 +15 +15 1022.6 981.2
09 20.08 Ю 6 н/о н/о +11.6 +4.3 61 +9 +9 1023.0 981.0
12 20.08 ЮВ 5 н/о н/о +10.0 +4.4 68 +7 +7 1022.6 980.4
15 20.08 ЮВ 7-10
{10}
н/о н/о +8.0 +4.9 81 +4 +4 1021.5 979.1
18 20.08 ЮВ 7-10
{11}
н/о н/о +8.7 +3.7 71 +5 +5 1020.3 978.0
21 20.08 ЮВ 6
{10}
н/о н/о +11.2 +4.9 65 +8 +8 1018.6 976.7
00 21.08 ЮЗ 2 н/о н/о +15.4 +4.9 50 +15 +15 1016.6 975.5
03 21.08 З 3 н/о н/о +17.0 +4.7 44 +17 +17 1015.0 974.1

 

Местоположение метеостанции Майская (Чукотка, Россия): широта 68.57 долгота 173.48 высота над уровнем моря 351 м.

В архиве по умолчанию представлена погода в Майской за последнюю неделю. Архивные данные за месяц целиком и за предыдущие месяцы, начиная с января 2011 года, Вы можете получить, выбрав интересующий диапазон дат из раскрывающегося списка и нажав кнопку "Ввод!".


*Определитесь, кто Вы:
робот инопланетянин человек

Внимание! Время в таблицах - всемирное. Для получения местного времени необходимо прибавить поправку, которая равна 12 ч.

Смотрите также архив погоды в соседних городах и на ближайших метеорологических станциях:

Погода в Паляваам-Глубокой (Чукотка, Россия) (66 км)
Погода в Комсомольской (Чукотка, Россия) (68 км)
Погода в Чауне (Чукотка, Россия) (117 км)
Погода на 21 км (Чукотка, Россия) (158 км)
Погода на Мысе Биллингс (Чукотка, Россия) (170 км)
Погода в Певеке (Чукотка, Россия) (181 км)
Погода в Валькаркае (Чукотка, Россия) (196 км)
Погода в Эньмувееме (Чукотка, Россия) (244 км)
Погода на Айон Острове (Чукотка, Россия) (267 км)
Погода в Илирнее (Чукотка, Россия) (276 км)

Пояснения к столбцам:

Ветер - указаны скорость ветра в м/с - средняя за 10 мин, порывы в срок и между сроками (в фигурных скобках) и направление, откуда дует ветер: С - северный, СВ - северо-восточный, В - восточный, ЮВ - юго-восточный, Ю - южный, ЮЗ - юго-западный, З - западный, СЗ - северо-западный.
Видимость - горизонтальная дальность видимости в метрах или километрах. При видимости от 1 до 10 км при отсутствии осадков обычно наблюдается дымка, при ухудшении видимости до 1 км и менее - туман. В сухую погоду видимость может ухудшаться дымом, пылью или мглою.
Явления - указаны атмосферные явления, наблюдавшиеся в срок или в последний час перед сроком; фигурными скобками обозначены явления, наблюдавшиеся между сроками (за 1-3 часа до срока); квадратными скобками обозначены град или гололедные отложения с указанием их диаметра в мм.
Облачность - указаны через наклонную черту общая и нижняя облачность в баллах и высота нижней границы облаков в метрах; квадратными скобками обозначены формы облаков: Ci - перистые, Cs - перисто-слоистые, Cc - перисто-кучевые, Ac - высококучевые, As - высокослоистые, Sc - слоисто-кучевые, Ns - слоисто-дождевые, Cu - кучевые, Cb - кучево-дождевые. Подробнее классификацию облаков см. в Атласе облаков (PDF).
T - Температура воздуха - температура, измеренная на высоте 2 м над землей.
Td - Температура точки росы - температура, при понижении до которой содержащийся в воздухе водяной пар достигнет насыщения.
f - Относительная влажность воздуха - влажноcть воздуха, измеренная на высоте 2 м над землей.
Te - Эффективная температура - температура, которую ощущает одетый по сезону человек в тени. Характеристика душности погоды. При расчете учитывается влияние влажности воздуха и скорости ветра на теплоощущения человека.
Tes - Эффективная температура на солнце - температура, которую ощущает человек, с поправкой на солнечный нагрев. Характеристика знойности погоды. Зависит от высоты солнца над горизонтом, облачности и скорости ветра. Ночью, в пасмурную погоду, а также при ветре 12 м/с и более поправка равна нулю.
P - Атмосферное давление - приведенное к уровню моря атмосферное давление.
Po - Атмосферное давление - измеренное на уровне метеостанции атмосферное давление.
Tmin - Минимальная температура - минимум температуры воздуха на высоте 2 м над землей.
Tmax - Максимальная температура - максимум температуры воздуха на высоте 2 м над землей.
R - Количество осадков - Количество выпавших осадков за период времени, мм. При наведении курсора мыши на число - период времени, за который выпало указанное количество осадков.
R24 - Количество осадков - Количество выпавших осадков за 24 часа, мм.
S - Снежный покров - Высота снежного покрова, см. При наведении курсора мыши на число - состояние снежного покрова и степень покрытия местности в баллах.